Terminal Aerodrome Forecast
Issued by NWS Des Moines, IA

Home | Current Version | Previous Version | Text Only | Print | Product List | Glossary On
Versions: 1 2 3 4 5 6 7 8 9 10 11 12 13 14 15 16 17 18 19 20 21 22 23 24 25 26 27 28 29 30 31 32 33 34 35 36 37 38 39 40 41 42 43 44 45 46 47 48 49 50
000
FTUS43 KDMX 220407 AAB
TAFALO
TAF AMD
KALO 220407Z 2204/2224 26005KT 6SM BR SCT025
      TEMPO 2204/2207 4SM BR BKN025
     FM220800 VRB03KT 1/4SM FG BKN003
     FM221700 33005KT 2SM BR BKN005
     FM222000 33011KT P6SM BKN015=

USA.gov is the U.S. government's official web portal to all federal, state and local government web resources and services.